TULCEA current weather conditions

sailwx.info

Wind from 240 at 17 knots

Air temperature 6.0° C
Visibility: greater than 5.4 NM
Dewpoint -4.0° C

Last reported at 2020-Jan-22 14:30 UTC.
Time now 2020-Jan-22 15:33 UTC

Location: N 45°04' E 028°43'.
View on Google Maps.

See reports from other nearby stations

  
Tides and Currents Weather Stations Pressure Air Temp Water Temp Dewpoint Dewpoint Depression Visibility Wind Speed Wind Dir Waves Ship Positions
date/time (UTC)wind fromknots sea level pressurealtimeterstation pressurevisibilityair tempwater tempwave heightnotes
2020-Jan-22 14:30 240 17 5.4 6.0
2020-Jan-22 14:00 230 14 5.4 7.0
2020-Jan-22 13:30 250 20 5.4 7.0
2020-Jan-22 13:00 240 14 5.4 7.0
2020-Jan-22 12:30 240 19 5.4 8.0
2020-Jan-22 12:00 250 21 5.4 7.0
2020-Jan-22 11:30 250 19 5.4 7.0
2020-Jan-22 11:00 260 18 5.4 7.0
2020-Jan-22 10:30 240 15 5.4 6.0
2020-Jan-22 10:00 240 15 5.4 6.0
2020-Jan-22 09:30 250 18 5.4 5.0
2020-Jan-22 09:00 240 19 5.4 4.0
2020-Jan-22 08:30 260 14 5.4 3.0
2020-Jan-22 08:00 260 15 5.4 2.0
2020-Jan-22 07:30 280 7 5.4 2.0
2020-Jan-22 07:00 5.4-0.0
2020-Jan-22 06:30 230 6 5.4-0.0
2020-Jan-22 06:00 260 12 5.4 1.0
2020-Jan-22 05:30 290 9 5.4-0.0
2020-Jan-22 05:00 5.4-1.0
2020-Jan-22 04:30 240 6 5.4-0.0
2020-Jan-22 04:00 5.4-0.0
2020-Jan-22 03:30 230 6 5.4-1.0
2020-Jan-22 03:00 5.4-0.0
2020-Jan-22 02:30 5.4-1.0
2020-Jan-22 02:00 260 13 5.4 1.0
2020-Jan-22 01:30 280 11 5.4-0.0
2020-Jan-22 01:00 260 9 5.4-0.0
2020-Jan-22 00:30 270 13 5.4-0.0
2020-Jan-22 00:00 240 12 5.4-0.0
2020-Jan-21 23:30 240 7 5.4-1.0
2020-Jan-21 23:00 250 12 5.4-0.0
2020-Jan-21 22:30 260 11 5.4-0.0
2020-Jan-21 22:00 300 6 5.4-0.0
2020-Jan-21 21:30 270 9 5.4-0.0
2020-Jan-21 21:00 260 13 5.4 1.0
2020-Jan-21 20:30 260 13 5.4 1.0
2020-Jan-21 20:00 270 13 5.4 1.0
2020-Jan-21 19:30 260 15 5.4 1.0
2020-Jan-21 19:00 260 15 5.4 2.0
2020-Jan-21 18:30 260 15 4.9 2.0
2020-Jan-21 18:00 260 14 4.9 2.0
2020-Jan-21 17:30 270 12 5.4 2.0
2020-Jan-21 17:00 270 12 5.4 2.0
2020-Jan-21 16:30 270 7 5.4 2.0
2020-Jan-21 16:00 270 7 5.4 2.0
2020-Jan-21 15:30 260 8 5.4 3.0
2020-Jan-21 15:00 260 12 5.4 3.0
2020-Jan-21 14:30 250 9 5.4 3.0
2020-Jan-21 14:00 250 12 5.4 4.0
2020-Jan-21 13:30 270 8 5.4 5.0
2020-Jan-21 13:00 310 13 5.4 6.0
2020-Jan-21 12:30 300 13 5.4 6.0
2020-Jan-21 12:00 310 14 5.4 5.0
2020-Jan-21 11:30 310 13 5.4 6.0
2020-Jan-21 11:00 310 15 5.4 4.0
2020-Jan-21 10:30 300 14 5.4 6.0
2020-Jan-21 10:00 270 13 5.4 5.0
2020-Jan-21 09:30 260 13 5.4 4.0
2020-Jan-21 09:00 290 12 5.4 4.0
2020-Jan-21 08:30 290 13 5.4 3.0
2020-Jan-21 08:00 310 11 5.4 2.0
2020-Jan-21 07:30 310 9 5.4 2.0
2020-Jan-21 07:00 310 8 5.4 1.0
2020-Jan-21 06:30 310 7 5.4 1.0
2020-Jan-21 06:00 310 8 5.4 1.0
2020-Jan-21 05:30 300 9 5.4 1.0
2020-Jan-21 05:00 300 9 5.4 1.0
2020-Jan-21 04:30 300 8 5.4 1.0
2020-Jan-21 04:00 300 8 5.4 1.0
2020-Jan-21 03:30 300 8 5.4 1.0
2020-Jan-21 03:00 310 9 5.4 1.0
2020-Jan-21 02:30 300 8 5.4 1.0
2020-Jan-21 02:00 310 7 5.4 1.0
2020-Jan-21 01:30 310 7 5.4 1.0
2020-Jan-21 01:00 320 9 5.4 1.0
2020-Jan-21 00:30 320 11 5.4 1.0
2020-Jan-21 00:00 320 11 5.4 1.0
2020-Jan-20 23:30 320 13 5.4 1.0
2020-Jan-20 23:00 320 12 5.4-0.0
2020-Jan-20 22:30 320 13 5.4-0.0
2020-Jan-20 22:00 320 12 5.4-0.0
2020-Jan-20 21:30 320 13 5.4-0.0
2020-Jan-20 21:00 340 11 5.4-0.0
2020-Jan-20 20:30 350 15 gusting 26 5.4-0.0
2020-Jan-20 20:00 350 15 5.4-0.0
2020-Jan-20 19:30 350 15 5.4-0.0
2020-Jan-20 19:00 340 18 5.4 1.0
2020-Jan-20 18:30 340 13 5.4 1.0
2020-Jan-20 18:00 340 17 5.4 1.0
2020-Jan-20 17:30 330 18 5.4 1.0
2020-Jan-20 17:00 340 13 5.4 1.0
2020-Jan-20 16:30 330 13 5.4 1.0
2020-Jan-20 16:00 330 13 5.4 1.0
2020-Jan-20 15:30 330 15 5.4 1.0
2020-Jan-20 15:00 330 13 5.4-0.0